CW3590 Weather Reports


Display with metric or nautical units.
time (UTC)temp
F
wind
direction
speed
MPH
gust
MPH
rain 1hr
in
rain 24hr
in
rain mn
in
humidity
%
barometer
mb
20260510034011 76 147 1.0 7.0 0.00 0.00 0.00 88 1009.7
20260510032010 76 147 1.0 3.0 0.00 0.00 0.00 88 1009.4
20260510031010 76 87 1.0 3.0 0.00 0.00 0.00 88 1009.2
20260510030011 76 0 0.0 4.0 0.00 0.00 0.00 87 1009.0
20260510025011 76 0 0.0 2.0 0.00 0.00 0.00 87 1008.9
20260510024011 77 0 0.0 1.0 0.00 0.00 0.00 87 1008.7
20260510023011 77 0 0.0 2.0 0.00 0.00 0.00 86 1008.6
20260510022011 77 0 0.0 3.0 0.00 0.00 0.00 85 1008.7
20260510021010 77 102 0.0 3.0 0.00 0.00 0.00 85 1008.6
20260510020012 77 22 1.0 3.0 0.00 0.00 0.00 85 1008.5
20260510015011 77 0 0.0 3.0 0.00 0.00 0.00 84 1008.3
20260510014011 77 75 1.0 3.0 0.00 0.00 0.00 84 1008.1
20260510013011 78 41 0.0 5.0 0.00 0.00 0.00 83 1007.9
20260510012011 79 0 0.0 2.0 0.00 0.00 0.00 81 1007.8
20260510010011 80 0 0.0 1.0 0.00 0.00 0.00 79 1007.5
20260510005011 80 0 0.0 1.0 0.00 0.00 0.00 79 1007.3
20260510004011 81 0 0.0 0.0 0.00 0.00 0.00 79 1007.3
20260510003010 81 0 0.0 1.0 0.00 0.00 0.00 77 1007.2
20260510002011 81 0 0.0 1.0 0.00 0.00 0.00 76 1007.2
20260510000011 82 0 0.0 2.0 0.00 0.00 0.00 75 1006.9
20260509235010 82 91 0.0 2.0 0.00 0.00 0.00 74 1006.9
20260509234010 82 0 0.0 2.0 0.00 0.00 0.00 74 1006.7
20260509233010 83 0 0.0 1.0 0.00 0.00 0.00 74 1006.6
20260509232010 83 0 0.0 3.0 0.00 0.00 0.00 74 1006.6
20260509231011 82 0 0.0 1.0 0.00 0.00 0.00 74 1006.5
20260509230012 82 0 0.0 1.0 0.00 0.00 0.00 75 1006.6
20260509225011 82 0 0.0 1.0 0.00 0.00 0.00 74 1006.7
20260509224012 82 0 0.0 2.0 0.00 0.00 0.00 73 1006.6
20260509223010 83 102 0.0 1.0 0.00 0.00 0.00 71 1006.6
20260509222011 84 104 1.0 3.0 0.00 0.00 0.00 71 1006.6
20260509221011 84 176 1.0 3.0 0.00 0.00 0.00 67 1006.5
20260509220010 84 205 1.0 2.0 0.00 0.00 0.00 66 1006.6
20260509215011 85 215 2.0 5.0 0.00 0.00 0.00 63 1006.6
20260509213010 85 183 1.0 3.0 0.00 0.00 0.00 65 1006.9
20260509211011 85 182 1.0 4.0 0.00 0.00 0.00 64 1007.1
20260509210011 85 250 2.0 5.0 0.00 0.00 0.00 62 1007.1
20260509205010 86 225 2.0 6.0 0.00 0.00 0.00 62 1007.2
20260509204010 84 263 1.0 5.0 0.00 0.00 0.00 65 1007.2
20260509203010 85 199 2.0 4.0 0.00 0.00 0.00 62 1007.4
20260509202011 86 236 1.0 6.0 0.00 0.00 0.00 63 1007.6
20260509201011 84 172 0.0 4.0 0.00 0.00 0.00 65 1007.6
20260509200011 84 326 1.0 4.0 0.00 0.00 0.00 69 1007.7
20260509194010 85 171 1.0 6.0 0.00 0.00 0.00 64 1007.9
20260509193010 85 129 2.0 3.0 0.00 0.00 0.00 69 1008.1
20260509192010 84 93 1.0 4.0 0.00 0.00 0.00 69 1008.2
20260509191011 83 125 1.0 3.0 0.00 0.00 0.00 68 1008.3
20260509190010 83 139 1.0 4.0 0.00 0.00 0.00 69 1008.3
20260509185011 82 136 1.0 4.0 0.00 0.00 0.00 70 1008.5
20260509184012 82 212 2.0 6.0 0.00 0.00 0.00 71 1008.5
20260509183011 82 159 1.0 5.0 0.00 0.00 0.00 73 1008.6
20260509182012 82 128 2.0 4.0 0.00 0.00 0.00 72 1008.7
20260509181011 81 144 2.0 5.0 0.00 0.00 0.00 74 1008.9
20260509180011 82 187 2.0 4.0 0.00 0.00 0.00 75 1009.0
20260509175010 80 137 2.0 7.0 0.00 0.00 0.00 79 1009.1
20260509174010 79 168 1.0 4.0 0.00 0.00 0.00 80 1009.4
20260509173010 79 147 2.0 3.0 0.00 0.00 0.00 82 1009.4
20260509172010 78 137 2.0 7.0 0.00 0.00 0.00 80 1009.4
20260509171010 79 134 1.0 4.0 0.00 0.00 0.00 80 1009.3
20260509170011 78 149 1.0 4.0 0.00 0.00 0.00 81 1009.4
20260509165011 78 207 1.0 5.0 0.00 0.00 0.00 80 1009.4
20260509163010 78 112 1.0 3.0 0.00 0.00 0.00 82 1009.5
20260509162011 78 254 1.0 4.0 0.00 0.00 0.00 84 1009.3
20260509161011 76 176 1.0 3.0 0.00 0.00 0.00 86 1009.3
20260509160010 76 238 2.0 5.0 0.00 0.00 0.00 87 1009.3
20260509155011 76 224 1.0 4.0 0.00 0.00 0.00 90 1009.4
20260509154010 75 155 1.0 3.0 0.00 0.00 0.00 92 1009.3
20260509153011 74 155 1.0 4.0 0.00 0.00 0.00 94 1009.4
20260509152011 73 0 0.0 2.0 0.00 0.00 0.00 95 1009.3
20260509151011 73 0 0.0 1.0 0.00 0.00 0.00 95 1009.3
20260509150010 72 0 0.0 2.0 0.00 0.00 0.00 95 1009.4
20260509145011 72 0 0.0 0.0 0.00 0.00 0.00 95 1009.6
20260509144010 72 0 0.0 0.0 0.00 0.00 0.00 95 1009.7
20260509142010 72 0 0.0 3.0 0.00 0.00 0.00 95 1009.8
20260509141010 72 0 0.0 2.0 0.00 0.00 0.00 95 1009.7
20260509140010 72 0 0.0 2.0 0.00 0.00 0.00 95 1009.7
20260509135011 72 0 0.0 2.0 0.00 0.00 0.00 95 1009.5
20260509133010 71 255 0.0 5.0 0.00 0.00 0.00 95 1009.4
20260509132010 71 278 1.0 3.0 0.00 0.00 0.00 95 1009.5
20260509131013 71 262 0.0 4.0 0.00 0.00 0.00 95 1009.6
20260509130010 71 0 0.0 1.0 0.00 0.00 0.00 95 1009.5
20260509124010 71 188 0.0 4.0 0.00 0.00 0.00 95 1009.4
20260509123010 70 0 0.0 2.0 0.00 0.00 0.00 95 1009.3
20260509120010 70 170 0.0 2.0 0.00 0.00 0.00 95 1008.9
20260509115010 70 0 0.0 2.0 0.00 0.00 0.00 95 1008.6
20260509114010 70 162 0.0 2.0 0.00 0.00 0.00 94 1008.9
20260509113010 70 161 0.0 3.0 0.00 0.00 0.00 94 1008.5
20260509112010 70 160 1.0 2.0 0.00 0.00 0.00 94 1008.3
20260509111010 70 157 1.0 3.0 0.00 0.00 0.00 94 1008.1
20260509110010 70 135 1.0 4.0 0.00 0.00 0.00 94 1007.6
20260509104010 70 160 1.0 3.0 0.00 0.00 0.00 94 1007.8
20260509103010 70 154 1.0 3.0 0.00 0.00 0.00 94 1008.1
20260509102010 70 141 0.0 4.0 0.00 0.00 0.00 94 1007.9
20260509101011 70 0 0.0 3.0 0.00 0.00 0.00 93 1008.0
20260509100009 70 0 0.0 2.0 0.00 0.00 0.00 93 1008.3
20260509095011 70 143 0.0 3.0 0.00 0.00 0.00 93 1008.5
20260509094010 70 131 1.0 2.0 0.00 0.00 0.00 93 1008.4
20260509092009 70 0 0.0 2.0 0.00 0.00 0.00 93 1008.5
20260509091011 70 108 0.0 3.0 0.00 0.00 0.00 92 1008.3
20260509090010 70 123 1.0 3.0 0.00 0.00 0.00 92 1008.3
20260509085010 70 123 1.0 3.0 0.00 0.00 0.00 92 1008.3
20260509084010 70 118 0.0 2.0 0.00 0.00 0.00 92 1008.5
20260509083010 70 116 1.0 2.0 0.00 0.00 0.00 92 1008.8
20260509082011 70 113 1.0 2.0 0.00 0.00 0.00 91 1009.0
20260509081010 70 93 1.0 3.0 0.00 0.00 0.00 91 1009.1
20260509080009 70 0 0.0 2.0 0.00 0.00 0.00 90 1009.1
20260509075009 70 0 0.0 1.0 0.00 0.00 0.00 89 1009.5
20260509074010 70 0 0.0 0.0 0.00 0.00 0.00 89 1009.7
20260509073009 70 0 0.0 0.0 0.00 0.00 0.00 89 1009.5
20260509072011 70 0 0.0 0.0 0.00 0.00 0.00 89 1009.5
20260509071010 70 0 0.0 0.0 0.00 0.00 0.00 89 1009.5
20260509070010 70 93 0.0 2.0 0.00 0.00 0.00 89 1009.4
20260509065011 71 93 1.0 3.0 0.00 0.00 0.00 88 1009.4
20260509064010 71 85 1.0 3.0 0.00 0.00 0.00 89 1008.9
20260509063010 71 57 1.0 5.0 0.00 0.00 0.00 88 1009.5
20260509062011 71 101 1.0 3.0 0.00 0.00 0.00 88 1009.4
20260509061010 71 0 0.0 2.0 0.00 0.00 0.00 87 1009.8
20260509060010 71 0 0.0 0.0 0.00 0.00 0.00 87 1010.0
20260509055010 71 0 0.0 0.0 0.00 0.00 0.00 87 1010.2
20260509054010 71 0 0.0 0.0 0.00 0.00 0.00 87 1010.3
20260509053010 71 0 0.0 1.0 0.00 0.00 0.00 87 1010.4
20260509052010 71 0 0.0 1.0 0.00 0.00 0.00 87 1010.3
20260509051010 71 0 0.0 2.0 0.00 0.00 0.00 86 1010.1
20260509050011 72 0 0.0 1.0 0.00 0.00 0.00 86 1010.0
20260509045011 72 0 0.0 0.0 0.00 0.00 0.00 87 1009.8
20260509044009 72 0 0.0 1.0 0.00 0.00 0.00 87 1009.6
20260509043012 72 0 0.0 1.0 0.00 0.00 0.00 87 1009.6
20260509042009 72 0 0.0 1.0 0.00 0.00 0.00 86 1009.4
20260509041011 72 0 0.0 2.0 0.00 0.00 0.00 86 1009.4
20260509040010 72 134 0.0 3.0 0.00 0.00 0.00 86 1009.3
20260509035010 72 133 0.0 3.0 0.00 0.00 0.00 86 1009.0